Location: Gettysburg
(39.8310°N, 77.2310°W)
Time: 09:40:49
(UTC-04:00)

ATLAS 2AS CENTAUR R/B - Visible Passes

Search period start: 01 May 2016 00:00
Search period end: 11 May 2016 00:00
Orbit: 904 x 1308 km, 63.7° (Epoch: 29 April)

Date Brightness Start Highest point End Pass type
(mag) Time Alt. Az. Time Alt. Az. Time Alt. Az.
01 May 3.1 22:08:32 10° NW 22:16:36 72° WSW 22:20:18 34° SSE visible
02 May 5.0 00:03:00 10° WNW 00:06:09 13° W 00:07:45 12° WSW visible
02 May 3.0 21:23:39 10° NNW 21:31:49 79° NE 21:37:14 22° SE visible
02 May 4.5 23:16:09 10° WNW 23:21:57 23° WSW 23:24:41 19° SW visible
03 May 3.4 20:38:53 10° NNW 20:46:51 55° NE 20:54:12 11° SE visible
03 May 4.0 22:30:28 10° NW 22:37:35 36° WSW 22:41:40 22° SSW visible
04 May 3.5 21:45:14 10° NW 21:53:05 56° WSW 21:58:42 18° S visible
05 May 3.1 21:00:14 10° NW 21:08:24 84° WSW 21:15:47 11° SSE visible
05 May 5.0 22:53:38 10° WNW 22:58:10 16° WSW 23:02:32 10° SW visible
06 May 4.5 22:07:28 10° NW 22:13:54 28° WSW 22:20:00 10° SSW visible
07 May 4.0 21:22:00 10° NW 21:29:29 43° WSW 21:36:29 10° S visible
08 May 3.4 20:36:53 10° NW 20:44:54 67° WSW 20:52:21 10° SSE visible
08 May 5.3 22:32:09 10° W 22:34:20 11° W 22:36:30 10° WSW visible
09 May 5.0 21:44:42 10° WNW 21:50:09 21° WSW 21:55:22 10° SSW visible
10 May 4.5 20:58:53 10° NW 21:05:49 33° WSW 21:12:21 10° S visible
